This is the latest recevied weather packets stored in our database for station/object KE8AFF-13. If no packets are shown the sender has not sent any weather packets the latest 10 day(s).
| Time | Temp. | Humidity | Pressure | Rain* | Wind** | Luminosity | Snow |
|---|---|---|---|---|---|---|---|
| 1787843779 | 23.89° C | 87% | 1014.5 hPa | 0 mm | - | 119 W/m² | - |
| 1787843475 | 24.44° C | 85% | 1014.6 hPa | 0 mm | - | 201 W/m² | - |
| 1787843172 | 24.44° C | 83% | 1014.3 hPa | 0 mm | - | 771 W/m² | - |
| 1787842871 | 23.89° C | 87% | 1014.6 hPa | 0 mm | - | 715 W/m² | - |
| 1787842566 | 23.89° C | 86% | 1014.4 hPa | 0 mm | - | 687 W/m² | - |
| 1787842265 | 23.89° C | 85% | 1014.4 hPa | 0 mm | - | 694 W/m² | - |
| 1787841960 | 23.89° C | 82% | 1014.3 hPa | 0 mm | - | 212 W/m² | - |
| 1787841656 | 23.89° C | 82% | 1014.4 hPa | 0 mm | - | 422 W/m² | - |
| 1787841355 | 23.89° C | 83% | 1014.2 hPa | 0 mm | - | 600 W/m² | - |
| 1787841050 | 23.89° C | 85% | 1014.3 hPa | 0 mm | - | 549 W/m² | - |
| 1787840745 | 23.89° C | 84% | 1014.3 hPa | 0 mm | - | 311 W/m² | - |
| 1787840441 | 23.33° C | 85% | 1013.8 hPa | 0 mm | - | 464 W/m² | - |
| 1787840136 | 23.89° C | 84% | 1014 hPa | 0 mm | - | 528 W/m² | - |
| 1787839835 | 23.33° C | 87% | 1014 hPa | 0 mm | - | 481 W/m² | - |
| 1787839530 | 23.33° C | 88% | 1014.1 hPa | 0 mm | - | 449 W/m² | - |
| 1787839230 | 23.33° C | 87% | 1013.7 hPa | 0 mm | - | 425 W/m² | - |
| 1787838924 | 23.33° C | 87% | 1013.9 hPa | 0 mm | - | 388 W/m² | - |
| 1787838624 | 22.78° C | 88% | 1013.8 hPa | 0 mm | - | 382 W/m² | - |
| 1787838323 | 22.78° C | 87% | 1013.9 hPa | 0 mm | - | 368 W/m² | - |
| 1787838022 | 22.22° C | 89% | 1013.7 hPa | 0 mm | - | 337 W/m² | - |
| 1787837722 | 22.22° C | 89% | 1013.9 hPa | 0 mm | - | 324 W/m² | - |
| 1787837417 | 21.67° C | 91% | 1013.9 hPa | 0 mm | - | 312 W/m² | - |
| 1787837112 | 21.67° C | 92% | 1013.9 hPa | 0 mm | - | 297 W/m² | - |
| 1787836815 | 21.11° C | 93% | 1013.8 hPa | 0 mm | - | 285 W/m² | - |
| 1787836506 | 21.11° C | 93% | 1013.9 hPa | 0 mm | - | 261 W/m² | - |
* Rain latest hour (hover to see other rain measurements)
** Current wind speed in m/s (hover to see current wind gust speed)